Showing default

COSMOS 2250, 22651

Orbit data source: Space-Track

COSMOS 2250, 22651 is a payload satellite owned by VKS (CIS) in LEO that was launched on Tue, 11 May 1993 UTC via a TSIKLON-3 launch vehicle from the Plesetsk Missile And Space Complex (PKMTR). Payload-class satellites include a variety of spacecraft equipped with specific instruments for various scientific and technological missions. These include communications satellites like Starlink; space stations such as the ISS; scientific satellites like the Hubble; Earth observation satellites from companies like Planet Labs, Umbra, and HawkEye 360; GPS; miniature CubeSats for education and research; and military/defense satellites.

Loading next visibility...
Identifier
22651, 1993-030F
Orbit
LEO
Country
Flag of CISCIS
Related business
Manufacturer
NPO PM
Mission
Defense Communications
Bus & Motor
STRELA-3, Unknown motor
Mass
225 kg wet, 225 kg dry
Launch date (UTC)
1993-05-11 (33 years ago)
Launch vehicle
TSIKLON-3
Launch site
Plesetsk Missile And Space Complex (PKMTR)
Object type
Payload
Rocket body
Debris
Shape & HBR
Cyl, 0.8 m
Radar Cross Section
1.257 m², Large (>1 m²)

Expand to show TLE details & history
Last TLE update: 13 hours ago

TLE from 13 hours ago
0 COSMOS 2250
1 22651U 93030F   26034.53649353  .00000014  00000-0  16694-4 0  9999
2 22651  82.5808  46.5928 0008774 227.0372 247.9329 12.63097485509142
Epoch: 2026-02-03T12:52Z
TLE epoch observation values (Epoch: 2026-02-03T12:52:33.040Z)
Latitude
64.19023°
Longitude
-115.80162°
Altitude
1,423.786 km
Speed
7.154 km/s
True Right ascension
14h 04m 12s
True Declination
64° 04' 00"
Sunlit
Object was in daylight at epoch
Visualization orbit readout
Latitude
Unknown
Longitude
Unknown
Altitude
Unknown
Speed
Unknown
Apparent Right ascension
Unknown
Apparent Declination
Unknown
Sunlit
N/A
Visualization observer readout
Local Sidereal Time
03:33:22
Azimuth
Unknown
Elevation
Unknown
Doppler factor
Unknown
Orbital elements
Apogee altitude
1,414.336 km
Perigee altitude
1,400.674 km
Semi-major axis
7,785.642 km
Eccentricity
0.00088
Inclination
82.5808°
RAAN
46.5928°
Arg. of periapsis
227.0372°
True anomaly
247.83976°
Mean anomaly
247.9329°
Eccentric anomaly
247.88633°
Mean motion
3.15938 °/min
Orbital period
113.95 mins
BSTAR
0.000016694
Loading maneuver chart data...
Computing Atmospheric mass density...
Loading historical data...
Loading historical data...
Loading historical data...
Loading historical data...
Loading historical data...
Loading historical data...
Loading historical data...

Documentation

Showing up to 5 results
|